• In Hungary
  • List of Countries
  • For 7 days
  • Water Temperature
  • Satellite Maps
  • Weather Map
  • News
  • Weather Widgets
  • user-avatar
    Login

    Hourly Weather Melbourne

    Today, 19 September, Wednesday

    Time Temperature Precipitation Wind Pressure Humidity
    00:00 +9°C° 0.1 mm 2 mps 756 mmHg 89%
    01:00 +8°C° 0.1 mm 3 mps 756 mmHg 90%
    02:00 +8°C° 0 mm 3 mps 756 mmHg 90%
    03:00 +7°C° 0 mm 3 mps 756 mmHg 90%
    04:00 +5°C° 0 mm 4 mps 756 mmHg 89%
    05:00 +5°C° 0 mm 3 mps 756 mmHg 89%
    06:00 +5°C° 0 mm 3 mps 757 mmHg 89%
    07:00 +5°C° 0 mm 3 mps 757 mmHg 89%
    08:00 +7°C° 0 mm 4 mps 757 mmHg 78%
    09:00 +10°C° 0 mm 4 mps 758 mmHg 67%
    10:00 +12°C° 0 mm 4 mps 758 mmHg 57%
    11:00 +12°C° 0 mm 4 mps 758 mmHg 53%
    12:00 +13°C° 0 mm 4 mps 759 mmHg 49%
    13:00 +14°C° 0 mm 4 mps 759 mmHg 45%
    14:00 +14°C° 0.1 mm 4 mps 759 mmHg 48%
    15:00 +14°C° 0.1 mm 3 mps 759 mmHg 50%
    16:00 +13°C° 0.1 mm 3 mps 759 mmHg 53%
    17:00 +12°C° 0 mm 3 mps 759 mmHg 60%
    18:00 +10°C° 0 mm 2 mps 760 mmHg 67%
    19:00 +9°C° 0 mm 1 mps 760 mmHg 74%
    20:00 +8°C° 0 mm 1 mps 761 mmHg 77%
    21:00 +8°C° 0 mm 1 mps 761 mmHg 80%
    22:00 +7°C° 0 mm 1 mps 762 mmHg 84%
    23:00 +7°C° 0 mm 1 mps 762 mmHg 85%

    Tomorrow, 20 September, Thursday

    Time Temperature Precipitation Wind Pressure Humidity
    00:00 +5°C° 0 mm 2 mps 762 mmHg 87%
    01:00 +5°C° 0 mm 2 mps 763 mmHg 89%
    02:00 +5°C° 0 mm 2 mps 763 mmHg 90%
    03:00 +5°C° 0 mm 2 mps 763 mmHg 91%
    04:00 +5°C° 0 mm 2 mps 763 mmHg 92%
    05:00 +5°C° 0 mm 2 mps 763 mmHg 91%
    06:00 +5°C° 0 mm 2 mps 763 mmHg 90%
    07:00 +5°C° 0 mm 2 mps 764 mmHg 89%
    08:00 +8°C° 0 mm 2 mps 764 mmHg 77%
    09:00 +12°C° 0 mm 2 mps 764 mmHg 66%
    10:00 +14°C° 0 mm 2 mps 764 mmHg 55%
    11:00 +15°C° 0 mm 2 mps 764 mmHg 51%
    12:00 +16°C° 0 mm 2 mps 764 mmHg 47%
    13:00 +17°C° 0 mm 2 mps 764 mmHg 43%
    14:00 +17°C° 0 mm 2 mps 764 mmHg 44%
    15:00 +17°C° 0 mm 2 mps 764 mmHg 46%
    16:00 +17°C° 0 mm 2 mps 764 mmHg 48%
    17:00 +16°C° 0 mm 2 mps 765 mmHg 57%
    18:00 +14°C° 0 mm 2 mps 765 mmHg 65%
    19:00 +12°C° 0 mm 1 mps 766 mmHg 74%
    20:00 +12°C° 0 mm 1 mps 766 mmHg 79%
    21:00 +11°C° 0 mm 1 mps 767 mmHg 84%
    22:00 +10°C° 0 mm 1 mps 767 mmHg 89%
    23:00 +9°C° 0 mm 1 mps 768 mmHg 91%

    Day after tomorrow, 21 September, Friday

    Time Temperature Precipitation Wind Pressure Humidity
    00:00 +8°C° 0 mm 2 mps 768 mmHg 93%
    01:00 +8°C° 0 mm 2 mps 768 mmHg 95%
    02:00 +7°C° 0 mm 2 mps 768 mmHg 95%
    03:00 +7°C° 0 mm 2 mps 768 mmHg 95%
    04:00 +7°C° 0 mm 2 mps 768 mmHg 95%
    05:00 +7°C° 0 mm 2 mps 768 mmHg 94%
    06:00 +7°C° 0 mm 2 mps 769 mmHg 94%
    07:00 +8°C° 0 mm 2 mps 769 mmHg 93%
    08:00 +10°C° 0 mm 2 mps 769 mmHg 82%
    09:00 +14°C° 0 mm 2 mps 769 mmHg 72%
    10:00 +16°C° 0 mm 2 mps 769 mmHg 61%
    11:00 +17°C° 0 mm 2 mps 769 mmHg 58%
    12:00 +19°C° 0 mm 2 mps 768 mmHg 54%
    13:00 +20°C° 0 mm 2 mps 768 mmHg 51%
    14:00 +20°C° 0 mm 2 mps 768 mmHg 53%
    15:00 +20°C° 0 mm 3 mps 767 mmHg 54%
    16:00 +19°C° 0 mm 3 mps 767 mmHg 56%
    17:00 +18°C° 0 mm 2 mps 767 mmHg 64%
    18:00 +16°C° 0 mm 2 mps 768 mmHg 72%
    19:00 +14°C° 0 mm 2 mps 768 mmHg 80%
    20:00 +13°C° 0 mm 2 mps 768 mmHg 82%
    21:00 +13°C° 0 mm 1 mps 769 mmHg 84%
    22:00 +12°C° 0 mm 1 mps 769 mmHg 86%
    23:00 +12°C° 0 mm 1 mps 769 mmHg 88%

    22 September, Saturday

    Time Temperature Precipitation Wind Pressure Humidity
    00:00 +11°C° 0 mm 1 mps 769 mmHg 90%
    01:00 +10°C° 0 mm 1 mps 769 mmHg 92%
    02:00 +10°C° 0 mm 1 mps 768 mmHg 92%
    03:00 +9°C° 0 mm 2 mps 768 mmHg 93%
    04:00 +8°C° 0 mm 2 mps 768 mmHg 93%
    05:00 +9°C° 0 mm 2 mps 768 mmHg 92%
    06:00 +9°C° 0 mm 2 mps 768 mmHg 90%
    07:00 +9°C° 0 mm 2 mps 769 mmHg 89%
    08:00 +12°C° 0 mm 3 mps 768 mmHg 79%
    09:00 +14°C° 0 mm 3 mps 768 mmHg 69%
    10:00 +18°C° 0 mm 3 mps 768 mmHg 59%
    11:00 +19°C° 0 mm 3 mps 768 mmHg 56%
    12:00 +20°C° 0 mm 3 mps 767 mmHg 52%
    13:00 +21°C° 0 mm 3 mps 767 mmHg 49%
    14:00 +21°C° 0 mm 3 mps 766 mmHg 50%
    15:00 +21°C° 0 mm 3 mps 766 mmHg 52%
    16:00 +20°C° 0 mm 3 mps 766 mmHg 53%
    17:00 +18°C° 0.1 mm 3 mps 766 mmHg 62%
    18:00 +16°C° 0.1 mm 2 mps 767 mmHg 71%
    19:00 +14°C° 0.1 mm 2 mps 767 mmHg 80%
    20:00 +14°C° 0.2 mm 2 mps 768 mmHg 84%
    21:00 +13°C° 0.2 mm 3 mps 768 mmHg 88%
    22:00 +12°C° 0.2 mm 3 mps 769 mmHg 91%
    23:00 +12°C° 0.1 mm 3 mps 769 mmHg 92%

    23 September, Sunday

    Time Temperature Precipitation Wind Pressure Humidity
    00:00 +11°C° 0.1 mm 3 mps 769 mmHg 93%
    01:00 +11°C° 0.1 mm 3 mps 769 mmHg 93%
    02:00 +10°C° 0.1 mm 3 mps 769 mmHg 92%
    03:00 +10°C° 0.1 mm 3 mps 769 mmHg 91%
    04:00 +8°C° 0.1 mm 4 mps 769 mmHg 90%
    05:00 +9°C° 0 mm 3 mps 770 mmHg 89%
    06:00 +8°C° 0 mm 3 mps 770 mmHg 87%
    07:00 +8°C° 0 mm 3 mps 771 mmHg 85%
    08:00 +9°C° 0 mm 3 mps 771 mmHg 75%
    09:00 +10°C° 0 mm 4 mps 771 mmHg 65%
    10:00 +11°C° 0 mm 4 mps 771 mmHg 56%
    11:00 +12°C° 0 mm 4 mps 771 mmHg 54%
    12:00 +12°C° 0 mm 4 mps 771 mmHg 53%
    13:00 +12°C° 0 mm 4 mps 771 mmHg 51%
    14:00 +12°C° 0 mm 4 mps 770 mmHg 52%
    15:00 +12°C° 0 mm 4 mps 770 mmHg 53%
    16:00 +12°C° 0 mm 4 mps 770 mmHg 54%
    17:00 +10°C° 0 mm 4 mps 770 mmHg 59%
    18:00 +8°C° 0 mm 4 mps 771 mmHg 65%
    19:00 +8°C° 0 mm 3 mps 771 mmHg 71%
    20:00 +7°C° 0 mm 3 mps 771 mmHg 74%
    21:00 +7°C° 0 mm 3 mps 771 mmHg 78%
    22:00 +6°C° 0 mm 2 mps 772 mmHg 82%
    23:00 +6°C° 0 mm 2 mps 771 mmHg 85%

    24 September, Monday

    Time Temperature Precipitation Wind Pressure Humidity
    00:00 +5°C° 0 mm 2 mps 771 mmHg 87%
    01:00 +5°C° 0 mm 2 mps 771 mmHg 90%
    02:00 +5°C° 0 mm 2 mps 771 mmHg 90%
    03:00 +6°C° 0 mm 1 mps 770 mmHg 91%
    04:00 +5°C° 0 mm 1 mps 770 mmHg 92%
    05:00 +6°C° 0 mm 1 mps 770 mmHg 90%
    06:00 +6°C° 0 mm 1 mps 771 mmHg 88%
    07:00 +6°C° 0 mm 1 mps 771 mmHg 87%
    08:00 +8°C° 0 mm 1 mps 771 mmHg 77%
    09:00 +9°C° 0 mm 2 mps 771 mmHg 67%
    10:00 +12°C° 0 mm 2 mps 770 mmHg 57%
    11:00 +12°C° 0 mm 3 mps 770 mmHg 55%
    12:00 +12°C° 0 mm 3 mps 770 mmHg 54%
    13:00 +13°C° 0 mm 3 mps 769 mmHg 52%
    14:00 +13°C° 0 mm 4 mps 769 mmHg 52%
    15:00 +13°C° 0 mm 4 mps 769 mmHg 53%
    16:00 +12°C° 0 mm 4 mps 768 mmHg 54%
    17:00 +11°C° 0 mm 4 mps 769 mmHg 59%
    18:00 +10°C° 0 mm 3 mps 769 mmHg 65%
    19:00 +8°C° 0 mm 3 mps 769 mmHg 71%
    20:00 +8°C° 0 mm 3 mps 769 mmHg 75%
    21:00 +7°C° 0 mm 3 mps 770 mmHg 79%
    22:00 +6°C° 0 mm 2 mps 770 mmHg 83%
    23:00 +6°C° 0 mm 2 mps 770 mmHg 86%
    Show more